Regional Weather Roundup
Issued by NWS

Home | Current Version | Previous Version | Text Only | Print | Product List | Glossary Off
Versions: 1 2 3 4 5 6 7 8 9 10 11 12 13 14 15 16 17 18 19 20 21 22 23 24 25 26 27 28 29 30 31 32 33 34 35 36 37 38 39 40 41 42 43 44 45 46 47 48 49 50

000
ASUS43 KDMX 200801
RWRIA

WEATHER ROUNDUP FOR IOWA
NATIONAL WEATHER SERVICE DES MOINES IA
200 AM CST MON NOV 20 2017

NOTE: "FAIR" INDICATES FEW OR NO CLOUDS BELOW 12,000 FEET WITH NO
SIGNIFICANT WEATHER AND/OR OBSTRUCTIONS TO VISIBILITY.

* - THESE STATIONS ARE NOT NWS STATIONS...THUS NOT UNDER NWS
QUALITY CONTROL.  THEY ALSO DO NOT REPORT WEATHER SUCH
AS PRECIPITATION OR FOG.

IAZ001>003-012>014-020>022-031>034-043>046-200900-
   NORTHWEST IOWA

CITY           SKY/WX    TMP DP  RH WIND       PRES   REMARKS
CARROLL *      PTCLDY    39  27  60 SW17      29.82S WCI  30
CHEROKEE *     CLOUDY    33  26  75 S7        29.78F WCI  27
DENISON *      CLEAR     37  25  60 S9        29.84S WCI  31
LE MARS *      CLOUDY    32  25  74 S9        29.76F WCI  24
ORANGE CITY *  CLOUDY    34  28  80 S5        29.74F WCI  30
SHELDON *      CLOUDY    28  25  86 SE8       29.74F WCI  20
SIOUX CITY     CLEAR     30  25  81 E8        29.78F WCI  22
SPENCER        CLOUDY    30  23  75 S8        29.77F WCI  22
STORM LAKE *   CLOUDY    34  25  69 S12       29.78F WCI  25
$$

IAZ055>058-069>071-079>083-090>094-200900-
   SOUTHWEST IOWA

CITY           SKY/WX    TMP DP  RH WIND       PRES   REMARKS
ATLANTIC *     CLOUDY    36  28  75 S10       29.86F WCI  28
AUDUBON *      CLOUDY    37  27  65 S9        29.85F WCI  31
CLARINDA *       N/A     36  28  75 S7        29.92F WCI  30
COUNCIL BLFS * CLOUDY    37  27  65 S8        29.85F WCI  31
CRESTON *      CLOUDY    36  28  75 SW13      29.91F WCI  27
HARLAN  *      CLEAR     34  28  80 S8        29.88F WCI  27
LAMONI         CLOUDY    38  29  70 S13       29.92F WCI  30
RED OAK *      CLOUDY    34  27  75 SW6       29.89F WCI  29
SHENANDOAH *   CLOUDY    37  27  65 S9        29.90F WCI  31
$$

IAZ047>049-059>061-072>074-084-200900-
   CENTRAL IOWA

CITY           SKY/WX    TMP DP  RH WIND       PRES   REMARKS
AMES           CLEAR     36  29  75 SW9       29.86F WCI  29
ANKENY *       CLEAR     41  27  56 S10G16    29.89F
BOONE *        CLEAR     37  28  70 SW13      29.84F WCI  29
CHARITON *     CLOUDY    37  30  75 S15       29.92F WCI  28
DES MOINES     PTCLDY    41  27  57 SW15      29.89F
GRINNELL*      CLOUDY    36  29  74 S12       29.91S WCI  28
KNOXVILLE *    CLOUDY    41  27  56 SW16      29.88F
MARSHALLTOWN   CLEAR     37  28  70 SW13      29.86F WCI  29
NEWTON *       CLEAR     37  28  70 SW14      29.89F WCI  29
PELLA *        CLOUDY    40  28  63 SW8       29.91F WCI  35
$$

IAZ004>006-015-016-023>025-035-036-200900-
   NORTH CENTRAL IOWA

CITY           SKY/WX    TMP DP  RH WIND       PRES   REMARKS
ALGONA *       CLOUDY    30  30 100 S8        29.79F WCI  23
CLARION *      CLOUDY    30  30 100 S10       29.82F WCI  21
ESTHERVILLE    CLOUDY    35  26  69 SW9       29.76F WCI  28
FORT DODGE *   CLOUDY    33  25  72 S6        29.82F WCI  28
MASON CITY     CLOUDY    31  25  78 S6        29.83F WCI  25
FOREST CITY *    N/A     30  28  93 S3        29.81F
WEBSTER CITY * CLEAR     36  27  69 SW12      29.81F WCI  27
IOWA FALLS *     N/A     35  29  80 S12       29.86S WCI  26
$$

IAZ007>011-017>019-026>030-037>042-050>054-066-200900-
   NORTHEAST IOWA

CITY           SKY/WX    TMP DP  RH WIND       PRES   REMARKS
CEDAR RAPIDS   CLOUDY    32  27  81 S10       29.91F WCI  24
CHARLES CITY * CLOUDY    32  30  93 S9        29.84F WCI  24
CLINTON *      CLOUDY    32  25  75 S7        29.97F WCI  26
DECORAH *      CLOUDY    34  27  75 S8G14     29.83F WCI  27
DUBUQUE        CLOUDY    31  25  78 S12       29.91F WCI  22
MONTICELLO *   PTCLDY    32  27  80 S6        29.92F WCI  26
OELWEIN *      CLOUDY    30  30 100 S8        29.88F WCI  23
WATERLOO       PTCLDY    33  26  75 S8        29.87F WCI  26
$$

IAZ064-065-067-068-078-200900-
   EAST CENTRAL IOWA

CITY           SKY/WX    TMP DP  RH WIND       PRES   REMARKS
DAVENPORT      PTCLDY    35  25  66 S10       29.99F WCI  27
IOWA CITY      CLOUDY    34  26  72 CALM      29.96F
MT. PLEASANT * CLOUDY    34  27  74 S14       29.98F WCI  25
MUSCATINE *    CLOUDY    37  27  65 S10G20    29.97F WCI  30
QUAD CITIES    CLOUDY    35  24  64 SW7       29.97F WCI  29
$$

IAZ062-063-075>077-085>089-095>099-200900-
   SOUTHEAST IOWA

CITY           SKY/WX    TMP DP  RH WIND       PRES   REMARKS
BURLINGTON     CLEAR     35  27  72 S13G25    29.99F WCI  26
FAIRFIELD *    CLOUDY    37  27  65 S14       29.94F WCI  29
FORT MADISON * CLEAR     37  28  70 SW15G22   30.00F WCI  28
KEOKUK *       CLEAR     36  27  69 S13G18    30.01S WCI  27
OSKALOOSA *      N/A     38  29  72 SW15      29.92F WCI  29
OTTUMWA        CLOUDY    41  28  60 SW16      29.93F
WASHINGTON *   CLOUDY    36  28  75 SW12      29.96F WCI  27
$$

ABBREVIATIONS USED IN REMARKS
   TC - TEMPERATURES IN CELSIUS
  WCI - WIND CHILL INDEX
   HX - HEAT INDEX
  VSB - VISIBILITY
$$





USA.gov is the U.S. government's official web portal to all federal, state and local government web resources and services.